This demonstration page uses our WeatherBlox Daily Observations layout. Learn more.

39.29038, -76.61219

Hourly Observations for July 20, 2016

Temp ( °F °C ) Dew Point ( °F °C ) Humidity (%) Winds ( mph kmh ) Pressure ( in mb ) Visibility ( mi km ) Precip ( " mm )
12:54 am 00:54 undefined 76 24.4 61 16.1 60 60 undefined N/A 30.17 1022 N/A 0 0
1:54 am 01:54 undefined 76 24.4 62 16.7 62 62 undefined N/A 30.15 1021 N/A 0 0
2:54 am 02:54 undefined 75 23.9 62 16.7 64 64 undefined N/A 30.14 1021 N/A 0 0
3:54 am 03:54 undefined 76 24.4 63 17.2 64 64 undefined N/A 30.14 1021 N/A 0 0
4:54 am 04:54 undefined 74 23.3 62 16.7 67 67 undefined N/A 30.15 1021 N/A 0 0
5:54 am 05:54 undefined 74 23.3 63 17.2 69 69 undefined N/A 30.17 1022 N/A 0 0
6:54 am 06:54 undefined 74 23.3 63 17.2 69 69 undefined N/A 30.19 1022 N/A 0 0
7:54 am 07:54 undefined 75 23.9 63 17.2 66 66 undefined N/A 30.19 1022 N/A 0 0
9:54 am 09:54 undefined 79 26.1 58 14.4 49 49 undefined N/A 30.21 1023 N/A 0 0
10:54 am 10:54 undefined 81 27.2 59 15 47 47 undefined N/A 30.22 1023 N/A 0 0
11:54 am 11:54 undefined 82 27.8 59 15 46 46 undefined N/A 30.21 1023 N/A 0 0
1:54 pm 13:54 undefined 85 29.4 59 15 42 42 undefined N/A 30.18 1022 N/A 0 0
2:54 pm 14:54 undefined 84 28.9 56 13.3 38 38 undefined N/A 30.17 1022 N/A 0 0
3:54 pm 15:54 undefined 85 29.4 58 14.4 40 40 undefined N/A 30.16 1021 N/A 0 0
4:54 pm 16:54 undefined 86 30 59 15 40 40 undefined N/A 30.15 1021 N/A 0 0
5:54 pm 17:54 undefined 84 28.9 59 15 43 43 undefined N/A 30.14 1021 N/A 0 0
6:54 pm 18:54 undefined 84 28.9 56 13.3 38 38 undefined N/A 30.14 1021 N/A 0 0
7:54 pm 19:54 undefined 84 28.9 58 14.4 41 41 undefined N/A 30.14 1021 N/A 0 0
8:54 pm 20:54 undefined 82 27.8 59 15 46 46 undefined N/A 30.16 1021 N/A 0 0
9:54 pm 21:54 undefined 81 27.2 59 15 47 47 undefined N/A 30.18 1022 N/A 0 0
10:54 pm 22:54 undefined 80 26.7 60 15.6 51 51 undefined N/A 30.18 1022 N/A 0 0
11:54 pm 23:54 undefined 78 25.6 64 17.8 62 62 undefined N/A 30.18 1022 N/A 0 0

Powered by AerisWeather